Regional Weather Roundup
Issued by NWS Sterling, VA

Home | Current Version | Previous Version | Graphics & Text | Print | Product List | Glossary On
Versions: 1 2 3 4 5 6 7 8 9 10 11 12 13 14 15 16 17 18 19 20 21 22 23 24 25 26 27 28 29 30 31 32 33 34 35 36 37 38 39 40 41 42 43 44 45 46 47 48 49 50
242
ASUS41 KLWX 200511
RWRLWX

REGIONAL WEATHER ROUNDUP
NATIONAL WEATHER SERVICE BALTIMORE MD/WASHINGTON DC
100 AM EDT SUN AUG 20 2017

Note: "FAIR" indicates few or no clouds below 12,000 feet
with no significant weather and/or obstructions to visibility.
 TC=TEMPERATURE CELSIUS

 * =Non NWS site. Station does not report precipitation (e.g. rain,
    snow, etc.), thunder, or fog.

DCZ001-MDZ009-015-VAZ040>042-051-053>054-200600-
WASHINGTON METRO

CITY           SKY/WX    TMP DP  RH WIND       PRES   REMARKS
WASHINGTON NAT PTCLDY    73  63  70 NW7       30.00R
DULLES         PTCLDY    67  66  97 CALM      30.00R
ANDREWS AFB    PTCLDY    68  67  95 CALM      29.99R
FT BELVOIR     CLOUDY    70  67  89 CALM      30.00R
QUANTICO       PTCLDY    77  68  73 E5        30.00R
COLLEGE PARK*  CLEAR     68  64  87 CALM      29.99S
LEESBURG*      CLEAR     66  66 100 CALM      30.02S
MANASSAS*      PTCLDY    69  67  93 S3        30.01R
GAITHERSBURG*  CLEAR     65  64  97 CALM      30.02R

$$

MDZ006>007-011-014-200600-
BALTIMORE METRO

CITY           SKY/WX    TMP DP  RH WIND       PRES   REMARKS
BWI AIRPORT    PTCLDY    68  66  93 W3        29.98S
MD SCIENCE CTR   N/A     72  67  84 MISG      29.98S
MARTIN STATE   CLEAR     70  66  88 CALM      29.99S
ANNAPOLIS      CLEAR     75  67  76 CALM      29.98R
FORT MEADE*    CLEAR     64  64 100 CALM      30.02R

$$

MDZ012-015-019>023-200600-
MARYLAND EASTERN SHORE

CITY           SKY/WX    TMP DP  RH WIND       PRES   REMARKS
OCEAN CITY     CLEAR     70  69  97 NW3       29.99R
SALISBURY      CLEAR     72  70  93 CALM      29.98R
BAY BRIDGE AP* PTCLDY    73  66  78 CALM      29.99R
CAMBRIDGE*     PTCLDY    70  68  94 CALM      29.99F
EASTON*        CLOUDY    73  68  85 CALM      30.03R

$$

MDZ017>025-200600-
SOUTHERN MARYLAND

CITY           SKY/WX    TMP DP  RH WIND       PRES   REMARKS
PATUXENT RIVER PTCLDY    73  69  87 N6        29.99R
ST INIGOES     CLEAR     77  73  87 NE3       29.98R
LEONARDTOWN*   CLEAR     70  68  94 CALM      30.01R

$$

MDZ003>005-200600-
NORTH CENTRAL MARYLAND

CITY           SKY/WX    TMP DP  RH WIND       PRES   REMARKS
FREDERICK*     CLEAR     66  66 100 CALM      30.04R
HAGERSTOWN APT CLEAR     67  63  87 CALM      30.03R
WESTMINSTER*   CLEAR     64  64 100 CALM      30.01R

$$

MDZ501>502-200600-
WESTERN MARYLAND

CITY           SKY/WX    TMP DP  RH WIND       PRES   REMARKS
OAKLAND*         N/A     59  55  88 SW6       30.10R
CUMBERLAND*    CLEAR     63  63 100 CALM      30.09R

$$

VAZ025>031-200600-
SHENANDOAH VALLEY

CITY           SKY/WX    TMP DP  RH WIND       PRES   REMARKS
WINCHESTER*    CLEAR     63  59  88 CALM      30.03R
FRONT ROYAL*   CLEAR     64  64 100 CALM      30.02R
LURAY*         CLEAR     64  64 100 CALM      30.04R
NEW MARKET*    PTCLDY    67  65  91 CALM      30.03R
STAUNTON*      CLEAR     66  64  93 CALM      30.07R
WAYNESBORO*    CLEAR     68  65  89 CALM      30.07R

$$

WVZ021-048>050-054>055-200600-
EASTERN WEST VIRGINIA PANHANDLE

CITY           SKY/WX    TMP DP  RH WIND       PRES   REMARKS
MARTINSBURG    CLEAR     63  61  93 CALM      30.01R
PETERSBURG*    CLEAR     67  63  87 CALM      30.05S

$$

VAZ036>039-050-200600-
CENTRAL FOOTHILLS

CITY           SKY/WX    TMP DP  RH WIND       PRES   REMARKS
CHARLOTTESVILL CLEAR     73  66  78 CALM      30.01R
CULPEPER*      CLOUDY    68  65  92 N3        30.01S
ORANGE*        CLEAR     68  64  88 CALM      30.01R
GORDONSVILLE*  PTCLDY    71  67  89 CALM      30.01R
WARRENTON*     PTCLDY    69  65  86 CALM      30.00R

$$

VAZ055>057-200600-
NORTH AND CENTRAL PIEDMONT

CITY           SKY/WX    TMP DP  RH WIND       PRES   REMARKS
FREDERICKSBRG* PTCLDY    73  66  78 CALM      29.99S
STAFFORD*      CLEAR     67  66  97 CALM      30.03S

$$

NCZ024-NYZ072-PAZ021-071-VAZ022-071-200600-
OTHER REGIONAL OBSERVATIONS

CITY           SKY/WX    TMP DP  RH WIND       PRES   REMARKS
NEW YORK CITY  PTCLDY    77  64  64 CALM      29.92R
PHILADELPHIA   PTCLDY    73  59  61 W7        29.96R
PITTSBURGH     CLEAR     64  63  96 CALM      30.05R
ROANOKE        CLEAR     69  65  86 NW3       30.07R
RICHMOND       CLEAR     75  72  90 CALM      29.98R
RALEIGH        PTCLDY    74  71  91 CALM      30.01S

$$

ANZ530>537-200600-
MARINE OBSERVATIONS

STATION/POSITION TIME  TEMP    WIND        PRES
                       AIR SEA DIR/SP/G
                 (UTC) (F)     (DEG/KT/KT) (MB)
THOMAS PT LIGHT  0500   77 81  290/  3/  4   N/A
BALT KEY BRIDGE  0436   74     260/  8/  9 1015.0S
COVE POINT       0436   76      10/  6/ 12 1016.1R
LEWISETTA        0436   78 84  250/  6/  8 1014.9R
SOLOMONS ISLAND  0436   76 81   40/  4/  6   N/A
PINEY POINT      0436          320/  8/  9   N/A

$$





USA.gov is the U.S. government's official web portal to all federal, state and local government web resources and services.